Back to catalog

CZ-6A DEB

AliveSSO
NORAD 54538·DEBRIS·🇨🇳 China

Launched Nov 11, 2022 from Taiyuan Satellite Launch Center

Loading…

Next Passes (next 24 hours)

TLE

FreshSource: Space-Track

Epoch: Sep 14, 2026, 07:11 UTC

1 54538U 22151KN  26257.29983686 -.00000037  00000-0  38310-5 0  9990
2 54538  98.8750 218.2329 0120185 189.3383 170.5544 13.95834180195286

Track CZ-6A DEB in real time with AllMySat

Download on the App Store